Weather reports worldwide

Advertisment
Vigna Di Valle, Italy (16224): temperature & dewpoint: 10.07.2018 18:00:00 - 16.07.2018 18:00:00 (CEST)Vigna Di Valle, Italy (16224): wind speed: 10.07.2018 18:00:00 - 16.07.2018 18:00:00 (CEST)Vigna Di Valle, Italy (16224): wind direction: 10.07.2018 18:00:00 - 16.07.2018 18:00:00 (CEST)Vigna Di Valle, Italy (16224): reduced air pressure: 10.07.2018 18:00:00 - 16.07.2018 18:00:00 (CEST)Vigna Di Valle, Italy (16224): visibility: 10.07.2018 18:00:00 - 16.07.2018 18:00:00 (CEST)Vigna Di Valle, Italy (16224): sunshine duration: 10.07.2018 18:00:00 - 16.07.2018 18:00:00 (CEST)
Date & Time tt [°C] td [°C] ff [km/h] ff [kn] dd ppp [hPa] vv [km] sd [min]
16.07.2018 18:00:00 26,7 16,9 21 11 S 1011,4 8 3
16.07.2018 17:00:00 27,1 17,2 13 7 SSE 1012,2 8 0
16.07.2018 16:00:00 26,7 19,4 13 7 SSE 1012,5 6 0
16.07.2018 15:00:00 27,0 20,2 24 13 S 1013,3 6 8
16.07.2018 14:00:00 25,3 22,7 28 15 S 1013,4 6 0
16.07.2018 13:00:00 25,6 20,3 26 14 S 1015,9 7 0
16.07.2018 12:00:00 27,0 20,7 18 10 SSW 1015,2 7 3
16.07.2018 11:00:00 27,3 19,4 5 3 NNW 1013,8 7 24
16.07.2018 10:00:00 27,5 19,0 4 2 N 1014,1 7 60
16.07.2018 09:00:00 25,1 19,8 8 4 N 1014,5 7 60
16.07.2018 08:00:00 24,6 20,0 5 3 S 1015,0 7 60
16.07.2018 07:00:00 21,7 18,5 8 4 SSW 1014,6 - 14
16.07.2018 06:00:00 20,8 16,5 11 6 SSW 1014,5 - 0
16.07.2018 05:00:00 20,8 17,4 4 2 SW 1014,3 - 0
16.07.2018 04:00:00 22,2 17,2 4 2 N 1013,8 - 0
16.07.2018 03:00:00 22,3 18,1 8 4 NNW 1014,1 - 0
16.07.2018 02:00:00 22,4 15,9 5 3 WSW 1014,5 - 0
16.07.2018 01:00:00 23,5 15,7 4 2 N 1014,9 - 0
16.07.2018 00:00:00 23,9 15,1 4 2 N 1014,9 - 0
15.07.2018 23:00:00 24,8 14,6 4 2 N 1014,2 - 0
15.07.2018 22:00:00 25,5 13,9 5 3 W 1014,0 - 0
15.07.2018 21:00:00 27,0 14,7 5 3 NW 1013,2 - 26
15.07.2018 20:00:00 29,1 14,8 9 5 W 1012,9 - 60
15.07.2018 19:00:00 30,4 16,3 13 7 SW 1012,5 - 60
15.07.2018 18:00:00 33,1 6,1 9 5 W 1012,1 - 60
15.07.2018 17:00:00 33,7 10,0 11 6 WSW 1012,3 - 60
15.07.2018 16:00:00 33,3 12,1 16 9 SSW 1012,4 - 60
15.07.2018 15:00:00 33,0 10,9 13 7 SW 1012,5 - 60
15.07.2018 14:00:00 32,6 11,9 13 7 SSW 1012,9 - 60
15.07.2018 13:00:00 31,2 12,9 9 5 NNE 1013,3 - 60
15.07.2018 12:00:00 30,5 13,1 11 6 N 1013,6 - 60
15.07.2018 11:00:00 29,8 14,6 5 3 - 1013,9 - 60
15.07.2018 10:00:00 27,7 15,1 5 3 N 1013,9 - 60
15.07.2018 09:00:00 26,1 17,4 4 2 N 1013,7 - 60
15.07.2018 08:00:00 23,7 17,4 5 3 N 1014,0 - 60
15.07.2018 07:00:00 22,8 17,5 4 2 NE 1013,9 - 26
15.07.2018 06:00:00 20,2 16,9 4 2 SW 1013,9 - 0
15.07.2018 05:00:00 21,5 16,3 4 2 NE 1013,4 - 0
15.07.2018 04:00:00 21,6 14,7 5 3 N 1013,9 - 0
15.07.2018 03:00:00 21,6 18,8 8 4 N 1014,1 - 0
15.07.2018 02:00:00 22,3 17,0 5 3 NNE 1014,2 - 0
15.07.2018 01:00:00 23,0 17,5 8 4 NE 1014,7 - 0
15.07.2018 00:00:00 23,1 18,1 8 4 NNE 1015,3 - 0
14.07.2018 23:00:00 23,2 17,7 9 5 N 1015,6 - 0
14.07.2018 22:00:00 23,5 18,3 2 1 SW 1015,3 - 0
14.07.2018 21:00:00 24,6 18,7 5 3 SSW 1014,6 - 0
14.07.2018 20:00:00 26,7 17,5 9 5 SSW 1014,4 11 18
14.07.2018 19:00:00 28,9 12,0 15 8 SW 1014,1 11 27
14.07.2018 18:00:00 29,9 14,7 21 11 SSW 1014,1 11 60
14.07.2018 17:00:00 31,3 15,9 18 10 SSW 1014,1 11 42
14.07.2018 16:00:00 32,0 15,0 13 7 S 1014,4 11 29
14.07.2018 15:00:00 31,7 15,3 13 7 S 1015,0 11 35
14.07.2018 14:00:00 33,5 9,1 11 6 NNW 1015,1 11 60
14.07.2018 13:00:00 31,9 13,8 8 4 N 1016,0 11 60
14.07.2018 12:00:00 30,3 14,3 9 5 N 1016,7 11 60
14.07.2018 11:00:00 28,9 15,8 9 5 NNE 1017,2 11 60
14.07.2018 10:00:00 27,5 16,6 8 4 NNE 1017,3 11 60
14.07.2018 09:00:00 25,6 16,9 5 3 NE 1017,4 12 60
14.07.2018 08:00:00 23,7 18,7 8 4 NNE 1017,3 12 60
14.07.2018 07:00:00 22,3 17,5 8 4 NNE 1017,1 - 21
14.07.2018 06:00:00 21,1 16,6 5 3 NE 1017,3 - 0
14.07.2018 05:00:00 21,3 16,8 9 5 NE 1017,1 - 0
14.07.2018 04:00:00 21,2 17,5 8 4 NNE 1017,3 - 0
14.07.2018 03:00:00 21,5 17,8 5 3 NNE 1017,5 - 0
14.07.2018 02:00:00 21,8 15,7 8 4 NNW 1017,8 - 0
14.07.2018 01:00:00 22,2 15,6 5 3 NW 1018,0 - 0
14.07.2018 00:00:00 21,6 14,0 4 2 SE 1017,6 - 0
13.07.2018 23:00:00 23,0 14,0 5 3 W 1017,6 - 0
13.07.2018 22:00:00 23,7 13,3 8 4 WNW 1016,9 - 0
13.07.2018 21:00:00 25,2 16,0 4 2 N 1016,7 - 27
13.07.2018 20:00:00 28,1 16,0 5 3 W 1016,2 12 60
13.07.2018 19:00:00 28,7 17,3 15 8 SW 1016,2 14 60
13.07.2018 18:00:00 30,1 16,7 13 7 SW 1015,9 12 60
13.07.2018 17:00:00 30,8 14,4 16 9 SW 1015,9 12 60
13.07.2018 16:00:00 30,4 15,4 15 8 SW 1016,3 12 60
13.07.2018 15:00:00 30,5 15,7 16 9 SSW 1016,4 12 60
13.07.2018 14:00:00 30,7 17,3 13 7 S 1016,7 14 54
13.07.2018 13:00:00 29,7 13,2 11 6 N 1017,1 12 60
13.07.2018 12:00:00 29,0 11,9 9 5 N 1017,5 14 60
13.07.2018 11:00:00 27,3 15,6 8 4 N 1017,7 14 60
13.07.2018 10:00:00 25,3 16,5 8 4 N 1017,6 12 60
13.07.2018 09:00:00 24,0 17,3 5 3 N 1017,8 12 60
13.07.2018 08:00:00 22,1 18,0 8 4 NNE 1017,8 12 60
13.07.2018 07:00:00 20,5 17,9 11 6 NNE 1017,6 - 30
13.07.2018 06:00:00 19,6 18,5 5 3 N 1017,5 - 0
13.07.2018 05:00:00 20,0 19,0 4 2 N 1017,5 - 0
13.07.2018 04:00:00 19,9 18,7 2 1 NE 1017,4 - 0
13.07.2018 03:00:00 19,9 18,7 4 2 N 1017,3 - 0
13.07.2018 02:00:00 20,0 18,9 4 2 S 1017,3 - 0
13.07.2018 01:00:00 20,9 19,9 4 2 N 1017,2 - 0
13.07.2018 00:00:00 21,1 20,0 5 3 SW 1017,2 - 0
12.07.2018 23:00:00 21,4 20,1 8 4 SSW 1017,1 - 0
12.07.2018 22:00:00 22,0 20,2 11 6 S 1016,7 - 0
12.07.2018 21:00:00 23,0 18,3 11 6 S 1016,1 - 22
12.07.2018 20:00:00 25,7 14,0 9 5 SSW 1015,6 20 54
12.07.2018 19:00:00 27,1 11,1 9 5 SSW 1015,2 20 60
12.07.2018 18:00:00 27,2 13,5 13 7 SSW 1015,3 20 60
12.07.2018 17:00:00 28,1 12,4 18 10 S 1015,3 20 60
12.07.2018 16:00:00 27,9 14,7 21 11 S 1015,4 20 60
12.07.2018 15:00:00 28,2 13,2 21 11 S 1015,5 20 60
12.07.2018 14:00:00 28,0 16,8 18 10 S 1015,3 20 60
12.07.2018 13:00:00 28,2 13,5 21 11 S 1015,3 20 59
12.07.2018 12:00:00 27,4 16,3 18 10 S 1015,1 20 60
12.07.2018 11:00:00 27,2 14,2 16 9 S 1015,2 20 59
12.07.2018 10:00:00 25,5 17,6 16 9 SSW 1015,2 14 46
12.07.2018 09:00:00 24,4 19,2 15 8 SSE 1015,1 14 37
12.07.2018 08:00:00 22,2 18,4 11 6 SSE 1015,0 14 36
12.07.2018 07:00:00 21,1 17,9 11 6 SE 1014,9 - 5
12.07.2018 06:00:00 20,8 18,7 8 4 SSE 1014,8 - 0
12.07.2018 05:00:00 20,4 18,0 13 7 SE 1014,6 - 0
12.07.2018 04:00:00 20,3 18,5 11 6 SE 1014,9 - 0
12.07.2018 03:00:00 20,3 19,2 9 5 SE 1015,0 - 0
12.07.2018 02:00:00 20,6 19,5 9 5 SE 1014,9 - 0
12.07.2018 01:00:00 21,0 19,8 8 4 SE 1015,0 - 0
12.07.2018 00:00:00 20,9 19,4 9 5 SE 1015,0 - 0
11.07.2018 23:00:00 21,2 19,0 8 4 SE 1014,9 - 0
11.07.2018 22:00:00 22,3 19,6 9 5 SSE 1014,3 - 0
11.07.2018 21:00:00 23,0 19,2 15 8 S 1013,8 - 27
11.07.2018 20:00:00 24,4 18,3 26 14 S 1013,2 14 60
11.07.2018 19:00:00 25,8 17,7 26 14 S 1012,7 14 60
11.07.2018 18:00:00 26,4 17,2 22 12 S 1012,6 14 58
11.07.2018 17:00:00 26,8 18,0 21 11 S 1012,5 14 46
11.07.2018 16:00:00 26,0 17,9 22 12 S 1012,8 16 36
11.07.2018 15:00:00 26,6 17,2 21 11 S 1012,7 16 44
11.07.2018 14:00:00 27,1 16,3 26 14 S 1012,8 16 60
11.07.2018 13:00:00 27,1 16,6 28 15 S 1012,8 20 56
11.07.2018 12:00:00 27,3 18,7 24 13 S 1012,6 10 55
11.07.2018 11:00:00 27,0 18,3 24 13 S 1012,5 10 48
11.07.2018 10:00:00 25,6 19,4 16 9 S 1012,7 10 49
11.07.2018 09:00:00 24,4 20,0 16 9 SSE 1012,6 10 28
11.07.2018 08:00:00 22,7 18,7 11 6 SE 1013,2 10 30
11.07.2018 07:00:00 21,3 18,2 9 5 SSE 1013,0 - 7
11.07.2018 06:00:00 20,9 19,7 11 6 SE 1012,9 - 0
11.07.2018 05:00:00 21,4 20,8 8 4 SSE 1013,0 - 0
11.07.2018 04:00:00 21,4 20,8 9 5 SSE 1013,1 - 0
11.07.2018 03:00:00 21,6 20,9 11 6 SSE 1013,4 - 0
11.07.2018 02:00:00 21,6 20,7 9 5 S 1013,8 - 0
11.07.2018 01:00:00 21,8 21,2 8 4 SSE 1013,9 - 0
11.07.2018 00:00:00 21,5 20,8 9 5 SSE 1014,0 - 0
10.07.2018 23:00:00 21,4 19,5 11 6 S 1014,0 - 0
10.07.2018 22:00:00 21,7 16,8 8 4 S 1014,0 - 0
10.07.2018 21:00:00 23,4 13,3 8 4 SSW 1013,3 - 26
10.07.2018 20:00:00 25,6 13,3 13 7 SSW 1012,4 20 42
10.07.2018 19:00:00 27,6 13,0 15 8 SSW 1012,1 20 60
10.07.2018 18:00:00 28,5 13,6 16 9 SSW 1012,4 20 60

tt = temperature
td = dewpoint
ff = wind speed
dd = wind direction
ppp = reduced air pressure
vv = visibility
sd = sunshine duration

Next stations